Zurück zum Katalog

FREGAT R/B

AktivMEO
NORAD 28923·ROCKET BODY·🇷🇺 Russia

Gestartet Dec 28, 2005 von Baikonur Cosmodrome

Loading…

Nächste Überflüge (nächste 24 Stunden)

TLE

AlterndSource: Space-Track

Epoche: Aug 28, 2026, 10:59 UTC

1 28923U 05051B   26240.45794977 -.00000082  00000-0  00000+0 0  9991
2 28923  59.0161 355.0057 0015376 255.1322 104.1649  1.68646965127214

Verfolge FREGAT R/B in Echtzeit mit AllMySat

Download on the App Store